Location: Flitcham
(52.8000°N, 0.5667°E)
Time: 12:30:32
(UTC+00:00)

USA 234 - Pass Details

Date: 15 May 2026
Orbit: 1102 x 1106 km, 123.0° (Epoch: 4 January)

Event Time Altitude Azimuth Distance (km) Brightness Sun altitude
Rises 22:40:05 0° 61° (ENE) 3,927 6.3 -16.4°
Reaches altitude 10° 22:43:08 10° 75° (ENE) 2,965 5.5 -16.5°
Maximum altitude 22:48:17 24° 128° (SE) 2,092 4.3 -16.7°
Enters shadow 22:49:36 23° 145° (SE) 2,158 4.2 -16.8°
